Data No.,UTC Date,UTC Time,Latitude,Longitude,Course(deg),Temp(degC),Sal(psu)
754,2010/12/10,20:55:00,30-59.8100N,137-46.2400E,169,22.113,34.6334
755,2010/12/10,20:56:00,30-59.5700N,137-46.2900E,169,22.101,34.6327
756,2010/12/10,20:57:00,30-59.3200N,137-46.3400E,170,22.086,34.6345
757,2010/12/10,20:58:00,30-59.0700N,137-46.3900E,169,22.067,34.6342
758,2010/12/10,20:59:00,30-58.8200N,137-46.4500E,169,22.049,34.6336
759,2010/12/10,21:00:00,30-58.5700N,137-46.5000E,169,22.026,34.6331
760,2010/12/10,21:01:00,30-58.3200N,137-46.5500E,169,22.006,34.6335
761,2010/12/10,21:02:00,30-58.0800N,137-46.6100E,167,22.085,34.6336
762,2010/12/10,21:03:00,30-57.8400N,137-46.6800E,165,22.094,34.6372
763,2010/12/10,21:04:00,30-57.6000N,137-46.7500E,165,22.139,34.6329
764,2010/12/10,21:05:00,30-57.3600N,137-46.8200E,165,22.183,34.6313
765,2010/12/10,21:06:00,30-57.1300N,137-46.8900E,165,22.222,34.635
766,2010/12/10,21:07:00,30-56.9000N,137-46.9600E,165,22.28,34.6382
767,2010/12/10,21:08:00,30-56.6600N,137-47.0300E,165,22.312,34.6429
768,2010/12/10,21:09:00,30-56.4300N,137-47.1000E,165,22.333,34.6431
769,2010/12/10,21:10:00,30-56.1900N,137-47.1700E,165,22.357,34.6475
770,2010/12/10,21:11:00,30-55.9600N,137-47.2400E,165,22.376,34.648
771,2010/12/10,21:12:00,30-55.7200N,137-47.3100E,166,22.396,34.6473
772,2010/12/10,21:13:00,30-55.4700N,137-47.3800E,166,22.418,34.6483
774,2010/12/10,21:15:00,30-54.9900N,137-47.5200E,165,22.43,34.6495
775,2010/12/10,21:16:00,30-54.7500N,137-47.5900E,166,22.416,34.6475
776,2010/12/10,21:17:00,30-54.5100N,137-47.6600E,166,22.397,34.6455
777,2010/12/10,21:18:00,30-54.2700N,137-47.7300E,166,22.386,34.6424
778,2010/12/10,21:19:00,30-54.0300N,137-47.7900E,166,22.368,34.6404
779,2010/12/10,21:20:00,30-53.7900N,137-47.8600E,166,22.353,34.639
780,2010/12/10,21:21:00,30-53.5600N,137-47.9300E,166,22.345,34.6377
781,2010/12/10,21:22:00,30-53.3100N,137-48.0000E,166,22.336,34.6354
782,2010/12/10,21:23:00,30-53.0800N,137-48.0600E,166,22.334,34.6349
783,2010/12/10,21:24:00,30-52.8400N,137-48.1300E,166,22.326,34.6334
784,2010/12/10,21:25:00,30-52.6000N,137-48.2000E,165,22.311,34.6343
785,2010/12/10,21:26:00,30-52.3500N,137-48.2700E,166,22.304,34.6322
786,2010/12/10,21:27:00,30-52.1100N,137-48.3400E,166,22.29,34.6315
787,2010/12/10,21:28:00,30-51.8800N,137-48.4100E,165,22.297,34.63
788,2010/12/10,21:29:00,30-51.6300N,137-48.4800E,166,22.312,34.6274
789,2010/12/10,21:30:00,30-51.3900N,137-48.5500E,167,22.325,34.624
790,2010/12/10,21:31:00,30-51.1500N,137-48.6100E,166,22.333,34.6241
791,2010/12/10,21:32:00,30-50.9100N,137-48.6800E,166,22.346,34.6234
792,2010/12/10,21:33:00,30-50.6600N,137-48.7500E,167,22.359,34.6221
793,2010/12/10,21:34:00,30-50.4200N,137-48.8100E,166,22.367,34.6206
794,2010/12/10,21:35:00,30-50.1800N,137-48.8800E,166,22.374,34.6209
795,2010/12/10,21:36:00,30-49.9300N,137-48.9500E,166,22.38,34.6191
796,2010/12/10,21:37:00,30-49.6900N,137-49.0100E,167,22.387,34.6185
797,2010/12/10,21:38:00,30-49.4500N,137-49.0800E,166,22.385,34.618
798,2010/12/10,21:39:00,30-49.2100N,137-49.1500E,166,22.381,34.6173
799,2010/12/10,21:40:00,30-48.9400N,137-49.2200E,167,22.375,34.6187
800,2010/12/10,21:41:00,30-48.7000N,137-49.2800E,167,22.364,34.619
801,2010/12/10,21:42:00,30-48.4500N,137-49.3400E,167,22.348,34.6192
802,2010/12/10,21:43:00,30-48.2100N,137-49.4100E,167,22.342,34.6216
803,2010/12/10,21:44:00,30-47.9700N,137-49.4800E,167,22.339,34.6237
804,2010/12/10,21:45:00,30-47.7200N,137-49.5400E,166,22.335,34.6247
805,2010/12/10,21:46:00,30-47.4700N,137-49.6100E,166,22.331,34.624
806,2010/12/10,21:47:00,30-47.2300N,137-49.6800E,166,22.338,34.6235
807,2010/12/10,21:48:00,30-46.9800N,137-49.7400E,166,22.35,34.6212
808,2010/12/10,21:49:00,30-46.7400N,137-49.8100E,167,22.354,34.6219
809,2010/12/10,21:50:00,30-46.4900N,137-49.8800E,166,22.353,34.623
810,2010/12/10,21:51:00,30-46.2500N,137-49.9400E,166,22.35,34.6221
811,2010/12/10,21:52:00,30-46.0100N,137-50.0100E,166,22.34,34.6216
812,2010/12/10,21:53:00,30-45.7700N,137-50.0700E,166,22.332,34.6226
813,2010/12/10,21:54:00,30-45.5200N,137-50.1400E,167,22.337,34.622
814,2010/12/10,21:55:00,30-45.2700N,137-50.2100E,167,22.336,34.6229
815,2010/12/10,21:56:00,30-45.0200N,137-50.2700E,167,22.335,34.6219
816,2010/12/10,21:57:00,30-44.7800N,137-50.3400E,166,22.332,34.6226
817,2010/12/10,21:58:00,30-44.5300N,137-50.4000E,167,22.341,34.6239
818,2010/12/10,21:59:00,30-44.2900N,137-50.4600E,167,22.342,34.6246
819,2010/12/10,22:00:00,30-44.0400N,137-50.5300E,167,22.343,34.6264
820,2010/12/10,22:01:00,30-43.7900N,137-50.5900E,167,22.343,34.6279
821,2010/12/10,22:02:00,30-43.5500N,137-50.6600E,167,22.344,34.6263
822,2010/12/10,22:03:00,30-43.3000N,137-50.7200E,168,22.344,34.6258
823,2010/12/10,22:04:00,30-43.0600N,137-50.7800E,167,22.34,34.6252
824,2010/12/10,22:05:00,30-42.8100N,137-50.8400E,167,22.341,34.6248
825,2010/12/10,22:06:00,30-42.5600N,137-50.9100E,167,22.341,34.6255
826,2010/12/10,22:07:00,30-42.3000N,137-50.9800E,167,22.342,34.6289
827,2010/12/10,22:08:00,30-42.0500N,137-51.0400E,168,22.341,34.6292
828,2010/12/10,22:09:00,30-41.8100N,137-51.0900E,169,22.341,34.6291
829,2010/12/10,22:10:00,30-41.5600N,137-51.1400E,169,22.339,34.6292
830,2010/12/10,22:11:00,30-41.3100N,137-51.2000E,169,22.337,34.6298
831,2010/12/10,22:12:00,30-41.0600N,137-51.2500E,169,22.337,34.6294
832,2010/12/10,22:13:00,30-40.8200N,137-51.3000E,169,22.343,34.6282
833,2010/12/10,22:14:00,30-40.5700N,137-51.3600E,169,22.346,34.6267
834,2010/12/10,22:15:00,30-40.3200N,137-51.4100E,169,22.346,34.626
835,2010/12/10,22:16:00,30-40.0800N,137-51.4700E,169,22.346,34.6252
836,2010/12/10,22:17:00,30-39.8300N,137-51.5200E,169,22.345,34.6252
837,2010/12/10,22:18:00,30-39.5800N,137-51.5800E,169,22.345,34.6245
838,2010/12/10,22:19:00,30-39.3400N,137-51.6300E,168,22.344,34.625
839,2010/12/10,22:20:00,30-39.0900N,137-51.6900E,169,22.342,34.625
840,2010/12/10,22:21:00,30-38.8400N,137-51.7400E,169,22.34,34.6261
841,2010/12/10,22:22:00,30-38.6000N,137-51.8000E,168,22.338,34.6253
842,2010/12/10,22:23:00,30-38.3500N,137-51.8600E,168,22.336,34.6256
843,2010/12/10,22:24:00,30-38.1000N,137-51.9100E,168,22.334,34.6266
844,2010/12/10,22:25:00,30-37.8600N,137-51.9600E,169,22.331,34.6266
845,2010/12/10,22:26:00,30-37.6100N,137-52.0200E,168,22.327,34.6267
846,2010/12/10,22:27:00,30-37.3600N,137-52.0700E,169,22.322,34.6265
847,2010/12/10,22:28:00,30-37.1100N,137-52.1300E,168,22.318,34.6294
848,2010/12/10,22:29:00,30-36.8600N,137-52.1900E,169,22.316,34.6303
849,2010/12/10,22:30:00,30-36.6200N,137-52.2500E,168,22.309,34.6311
850,2010/12/10,22:31:00,30-36.3700N,137-52.3000E,168,22.304,34.6305
851,2010/12/10,22:32:00,30-36.1200N,137-52.3600E,169,22.296,34.6311
852,2010/12/10,22:33:00,30-35.8700N,137-52.4200E,168,22.29,34.6302
853,2010/12/10,22:34:00,30-35.6000N,137-52.4800E,168,22.287,34.6314
854,2010/12/10,22:35:00,30-35.3600N,137-52.5400E,168,22.272,34.6318
855,2010/12/10,22:36:00,30-35.1100N,137-52.5900E,169,22.234,34.6316
856,2010/12/10,22:37:00,30-34.8600N,137-52.6500E,169,22.229,34.6263
857,2010/12/10,22:38:00,30-34.6000N,137-52.7000E,169,22.229,34.5961
858,2010/12/10,22:39:00,30-34.3500N,137-52.7600E,169,22.231,34.6207
859,2010/12/10,22:40:00,30-34.1100N,137-52.8200E,169,22.231,34.6206
860,2010/12/10,22:41:00,30-33.8500N,137-52.8700E,169,22.234,34.6214
861,2010/12/10,22:42:00,30-33.6000N,137-52.9300E,169,22.237,34.6199
862,2010/12/10,22:43:00,30-33.3500N,137-52.9900E,169,22.235,34.6203
863,2010/12/10,22:44:00,30-33.1000N,137-53.0400E,169,22.241,34.6201
864,2010/12/10,22:45:00,30-32.8500N,137-53.1000E,169,22.237,34.6214
865,2010/12/10,22:46:00,30-32.6000N,137-53.1500E,169,22.24,34.6186
866,2010/12/10,22:47:00,30-32.3400N,137-53.2100E,168,22.236,34.6199
867,2010/12/10,22:48:00,30-32.1000N,137-53.2600E,169,22.234,34.6201
868,2010/12/10,22:49:00,30-31.8400N,137-53.3200E,169,22.232,34.6184
869,2010/12/10,22:50:00,30-31.6000N,137-53.3700E,169,22.229,34.619
870,2010/12/10,22:51:00,30-31.3400N,137-53.4300E,169,22.232,34.6186
871,2010/12/10,22:52:00,30-31.0900N,137-53.4800E,169,22.228,34.6191
872,2010/12/10,22:53:00,30-30.8400N,137-53.5300E,169,22.223,34.6183
873,2010/12/10,22:54:00,30-30.5900N,137-53.5900E,169,22.217,34.6199
874,2010/12/10,22:55:00,30-30.3400N,137-53.6400E,169,22.205,34.62
875,2010/12/10,22:56:00,30-30.0900N,137-53.7000E,168,22.21,34.6201
876,2010/12/10,22:57:00,30-29.8400N,137-53.7500E,169,22.218,34.6225
877,2010/12/10,22:58:00,30-29.5900N,137-53.8100E,169,22.237,34.625
878,2010/12/10,22:59:00,30-29.3400N,137-53.8700E,167,22.249,34.6265
879,2010/12/10,23:00:00,30-29.0900N,137-53.9300E,167,22.285,34.6247
880,2010/12/10,23:01:00,30-28.8400N,137-53.9900E,169,22.302,34.6225
881,2010/12/10,23:02:00,30-28.5700N,137-54.0300E,174,22.323,34.6197
882,2010/12/10,23:03:00,30-28.3100N,137-54.0500E,176,22.341,34.6195
883,2010/12/10,23:04:00,30-28.0600N,137-54.0700E,176,22.351,34.6194
884,2010/12/10,23:05:00,30-27.8000N,137-54.0800E,176,22.357,34.6196
885,2010/12/10,23:06:00,30-27.5500N,137-54.1000E,177,22.345,34.6191
886,2010/12/10,23:07:00,30-27.2900N,137-54.1100E,177,22.327,34.6182
887,2010/12/10,23:08:00,30-27.0300N,137-54.1200E,177,22.308,34.6178
888,2010/12/10,23:09:00,30-26.7700N,137-54.1400E,177,22.288,34.6179
889,2010/12/10,23:10:00,30-26.5100N,137-54.1500E,177,22.26,34.6182
890,2010/12/10,23:11:00,30-26.2600N,137-54.1600E,177,22.179,34.619
891,2010/12/10,23:12:00,30-26.0000N,137-54.1700E,177,22.174,34.619
892,2010/12/10,23:13:00,30-25.7400N,137-54.1800E,177,22.223,34.6238
893,2010/12/10,23:14:00,30-25.4900N,137-54.2000E,176,22.24,34.6315
894,2010/12/10,23:15:00,30-25.2400N,137-54.2100E,177,22.256,34.6198
895,2010/12/10,23:16:00,30-24.9800N,137-54.2200E,177,22.269,34.6366
896,2010/12/10,23:17:00,30-24.7200N,137-54.2400E,177,22.257,34.6356
897,2010/12/10,23:18:00,30-24.4700N,137-54.2500E,177,22.238,34.6346
898,2010/12/10,23:19:00,30-24.2200N,137-54.2500E,178,22.202,34.6347
899,2010/12/10,23:20:00,30-23.9700N,137-54.2800E,172,22.115,34.6347
900,2010/12/10,23:21:00,30-23.7300N,137-54.3200E,171,22.098,34.6359
901,2010/12/10,23:22:00,30-23.4800N,137-54.3600E,171,22.104,34.6351
902,2010/12/10,23:23:00,30-23.2400N,137-54.4000E,171,22.115,34.6348
903,2010/12/10,23:24:00,30-23.0000N,137-54.4400E,171,22.118,34.6339
904,2010/12/10,23:25:00,30-22.7500N,137-54.4800E,172,22.119,34.6344
905,2010/12/10,23:26:00,30-22.5000N,137-54.5200E,172,22.12,34.6336
906,2010/12/10,23:27:00,30-22.2600N,137-54.5600E,171,22.123,34.6338
907,2010/12/10,23:28:00,30-22.0200N,137-54.6000E,171,22.124,34.6325
908,2010/12/10,23:29:00,30-21.7700N,137-54.6400E,171,22.123,34.6328
909,2010/12/10,23:30:00,30-21.5300N,137-54.6800E,171,22.125,34.6329
910,2010/12/10,23:31:00,30-21.2700N,137-54.7300E,171,22.124,34.6337
911,2010/12/10,23:32:00,30-21.0300N,137-54.7700E,170,22.128,34.6327
912,2010/12/10,23:33:00,30-20.7900N,137-54.8200E,170,22.127,34.6325
913,2010/12/10,23:34:00,30-20.5500N,137-54.8600E,170,22.127,34.6326
914,2010/12/10,23:35:00,30-20.3100N,137-54.9100E,170,22.123,34.6315
915,2010/12/10,23:36:00,30-20.0700N,137-54.9600E,170,22.119,34.6314
916,2010/12/10,23:37:00,30-19.8300N,137-55.0000E,170,22.114,34.6304
917,2010/12/10,23:38:00,30-19.5900N,137-55.0500E,171,22.114,34.63
918,2010/12/10,23:39:00,30-19.3500N,137-55.0900E,170,22.113,34.6287
919,2010/12/10,23:40:00,30-19.1100N,137-55.1400E,170,22.111,34.6281
920,2010/12/10,23:41:00,30-18.8600N,137-55.1900E,170,22.109,34.627
921,2010/12/10,23:42:00,30-18.6200N,137-55.2300E,170,22.107,34.6271
922,2010/12/10,23:43:00,30-18.3700N,137-55.2800E,170,22.112,34.6266
923,2010/12/10,23:44:00,30-18.1300N,137-55.3200E,170,22.113,34.6263
924,2010/12/10,23:45:00,30-17.8900N,137-55.3700E,171,22.113,34.6273
925,2010/12/10,23:46:00,30-17.6500N,137-55.4100E,170,22.124,34.6282
926,2010/12/10,23:47:00,30-17.4100N,137-55.4600E,170,22.136,34.6305
927,2010/12/10,23:48:00,30-17.1600N,137-55.5100E,170,22.18,34.6327
928,2010/12/10,23:49:00,30-16.9100N,137-55.5600E,170,22.217,34.6319
929,2010/12/10,23:50:00,30-16.6700N,137-55.6100E,170,22.238,34.6301
930,2010/12/10,23:51:00,30-16.4400N,137-55.6600E,170,22.257,34.6293
931,2010/12/10,23:52:00,30-16.1900N,137-55.7100E,170,22.271,34.6284
932,2010/12/10,23:53:00,30-15.9500N,137-55.7600E,170,22.286,34.6291
933,2010/12/10,23:54:00,30-15.7000N,137-55.8100E,170,22.294,34.6295
934,2010/12/10,23:55:00,30-15.4500N,137-55.8600E,170,22.292,34.6315
935,2010/12/10,23:56:00,30-15.2100N,137-55.9000E,170,22.282,34.633
936,2010/12/10,23:57:00,30-15.0100N,137-55.9400E,170,22.271,34.6333
937,2010/12/10,23:58:00,30-14.7600N,137-55.9900E,170,22.25,34.6333
938,2010/12/10,23:59:00,30-14.5200N,137-56.0400E,170,22.248,34.633
939,2010/12/11,0:00:00,30-14.2800N,137-56.0900E,170,22.228,34.6316
942,2010/12/11,0:01:00,30-14.0200N,137-56.1400E,170,22.198,34.6321
943,2010/12/11,0:02:00,30-13.7700N,137-56.1800E,170,22.204,34.6301
944,2010/12/11,0:03:00,30-13.5200N,137-56.2300E,170,22.209,34.633
945,2010/12/11,0:04:00,30-13.2800N,137-56.2800E,170,22.212,34.6382
946,2010/12/11,0:05:00,30-13.0400N,137-56.3300E,170,22.215,34.6406
947,2010/12/11,0:06:00,30-12.7900N,137-56.3700E,171,22.221,34.6407
948,2010/12/11,0:07:00,30-12.5500N,137-56.4200E,170,22.221,34.6416
949,2010/12/11,0:08:00,30-12.3100N,137-56.4600E,170,22.215,34.642
950,2010/12/11,0:09:00,30-12.0600N,137-56.5100E,170,22.199,34.6424
951,2010/12/11,0:10:00,30-11.8200N,137-56.5600E,170,22.186,34.6402
952,2010/12/11,0:11:00,30-11.5700N,137-56.6000E,170,22.183,34.6378
953,2010/12/11,0:12:00,30-11.3200N,137-56.6500E,169,22.18,34.6366
954,2010/12/11,0:13:00,30-11.0900N,137-56.7000E,169,22.188,34.6381
955,2010/12/11,0:14:00,30-10.8400N,137-56.7500E,169,22.196,34.6385
956,2010/12/11,0:15:00,30-10.5900N,137-56.8000E,170,22.198,34.6378
957,2010/12/11,0:16:00,30-10.3500N,137-56.8500E,169,22.203,34.6378
958,2010/12/11,0:17:00,30-10.1000N,137-56.9100E,169,22.21,34.6385
959,2010/12/11,0:18:00,30-09.8500N,137-56.9600E,169,22.216,34.6375
960,2010/12/11,0:19:00,30-09.6100N,137-57.0100E,169,22.221,34.6366
961,2010/12/11,0:20:00,30-09.3600N,137-57.0600E,169,22.225,34.6351
962,2010/12/11,0:21:00,30-09.0900N,137-57.1200E,169,22.23,34.6353
963,2010/12/11,0:22:00,30-08.8500N,137-57.1700E,169,22.229,34.6331
964,2010/12/11,0:23:00,30-08.6000N,137-57.2200E,170,22.223,34.6325
965,2010/12/11,0:24:00,30-08.3500N,137-57.2700E,170,22.218,34.6325
966,2010/12/11,0:25:00,30-08.1000N,137-57.3200E,170,22.21,34.6313
967,2010/12/11,0:26:00,30-07.8600N,137-57.3700E,170,22.206,34.6327
968,2010/12/11,0:27:00,30-07.6000N,137-57.4200E,170,22.196,34.6321
969,2010/12/11,0:28:00,30-07.3600N,137-57.4700E,170,22.193,34.6322
970,2010/12/11,0:29:00,30-07.1100N,137-57.5200E,170,22.196,34.6301
971,2010/12/11,0:30:00,30-06.8600N,137-57.5700E,170,22.203,34.6299
972,2010/12/11,0:31:00,30-06.6100N,137-57.6200E,170,22.209,34.6319
973,2010/12/11,0:32:00,30-06.3600N,137-57.6700E,170,22.224,34.6321
974,2010/12/11,0:33:00,30-06.1100N,137-57.7200E,170,22.235,34.6324
975,2010/12/11,0:34:00,30-05.8700N,137-57.7700E,170,22.253,34.6363
976,2010/12/11,0:35:00,30-05.6200N,137-57.8200E,170,22.261,34.6387
977,2010/12/11,0:36:00,30-05.3700N,137-57.8700E,170,22.264,34.6419
978,2010/12/11,0:37:00,30-05.1200N,137-57.9100E,170,22.263,34.6422
979,2010/12/11,0:38:00,30-04.8700N,137-57.9600E,170,22.26,34.643
980,2010/12/11,0:39:00,30-04.6300N,137-58.0100E,170,22.26,34.6428
981,2010/12/11,0:40:00,30-04.3700N,137-58.0600E,170,22.262,34.6427
982,2010/12/11,0:41:00,30-04.1200N,137-58.1100E,170,22.259,34.6398
983,2010/12/11,0:42:00,30-03.8700N,137-58.1600E,170,22.263,34.6408
984,2010/12/11,0:43:00,30-03.6200N,137-58.2000E,170,22.26,34.6416
985,2010/12/11,0:44:00,30-03.3700N,137-58.2500E,170,22.264,34.6414
986,2010/12/11,0:45:00,30-03.1200N,137-58.3000E,170,22.272,34.6413
987,2010/12/11,0:46:00,30-02.8800N,137-58.3500E,170,22.293,34.6394
988,2010/12/11,0:47:00,30-02.6300N,137-58.4000E,169,22.337,34.6371
989,2010/12/11,0:48:00,30-02.3700N,137-58.4500E,169,22.383,34.6318
990,2010/12/11,0:49:00,30-02.1300N,137-58.5000E,169,22.401,34.6269
991,2010/12/11,0:50:00,30-01.8800N,137-58.5500E,169,22.415,34.6233
992,2010/12/11,0:51:00,30-01.6400N,137-58.6000E,170,22.431,34.6222
993,2010/12/11,0:52:00,30-01.4000N,137-58.6500E,170,22.438,34.6211
994,2010/12/11,0:53:00,30-01.1500N,137-58.7000E,170,22.441,34.6198
995,2010/12/11,0:54:00,30-00.9100N,137-58.7500E,170,22.443,34.6187
996,2010/12/11,0:55:00,30-00.6600N,137-58.7900E,171,22.447,34.6183
997,2010/12/11,0:56:00,30-00.4200N,137-58.8400E,170,22.448,34.6187
998,2010/12/11,0:57:00,30-00.1700N,137-58.8800E,170,22.45,34.6197
999,2010/12/11,0:58:00,29-59.9200N,137-58.9300E,171,22.452,34.6206
1000,2010/12/11,0:59:00,29-59.6700N,137-58.9800E,170,22.452,34.6196
1001,2010/12/11,1:00:00,29-59.4300N,137-59.0200E,170,22.456,34.5954
1002,2010/12/11,1:01:00,29-59.1900N,137-59.0700E,170,22.46,34.6204
1003,2010/12/11,1:02:00,29-58.9400N,137-59.1100E,170,22.464,34.6182
1004,2010/12/11,1:03:00,29-58.6900N,137-59.1600E,170,22.462,34.6193
1005,2010/12/11,1:04:00,29-58.4500N,137-59.2000E,171,22.466,34.6184
1006,2010/12/11,1:05:00,29-58.2000N,137-59.2500E,171,22.467,34.6195
1007,2010/12/11,1:06:00,29-57.9500N,137-59.2900E,171,22.472,34.6195
1008,2010/12/11,1:07:00,29-57.7100N,137-59.3400E,171,22.473,34.6194
1009,2010/12/11,1:08:00,29-57.4600N,137-59.3900E,170,22.474,34.6198
1010,2010/12/11,1:09:00,29-57.2100N,137-59.4300E,171,22.477,34.6202
1011,2010/12/11,1:10:00,29-56.9600N,137-59.4700E,171,22.482,34.62
1012,2010/12/11,1:11:00,29-56.7100N,137-59.5200E,171,22.486,34.6199
1013,2010/12/11,1:12:00,29-56.4600N,137-59.5700E,170,22.489,34.62
1014,2010/12/11,1:13:00,29-56.2100N,137-59.6100E,170,22.489,34.6207
1015,2010/12/11,1:14:00,29-55.9600N,137-59.6600E,170,22.485,34.62
1016,2010/12/11,1:15:00,29-55.6900N,137-59.7100E,171,22.484,34.6205
1017,2010/12/11,1:16:00,29-55.4500N,137-59.7500E,170,22.479,34.6213
1018,2010/12/11,1:17:00,29-55.2000N,137-59.8000E,170,22.473,34.6204
1019,2010/12/11,1:18:00,29-54.9500N,137-59.8400E,171,22.467,34.6204
1020,2010/12/11,1:19:00,29-54.7000N,137-59.8900E,170,22.469,34.6197
1021,2010/12/11,1:20:00,29-54.4500N,137-59.9400E,170,22.475,34.6193
1022,2010/12/11,1:21:00,29-54.2000N,137-59.9900E,170,22.482,34.6194
1023,2010/12/11,1:22:00,29-53.9500N,138-00.0400E,169,22.483,34.6189
1024,2010/12/11,1:23:00,29-53.7000N,138-00.0900E,170,22.487,34.6184
1025,2010/12/11,1:24:00,29-53.4500N,138-00.1400E,170,22.481,34.6189
1026,2010/12/11,1:25:00,29-53.2000N,138-00.1900E,170,22.479,34.6192
1027,2010/12/11,1:26:00,29-52.9500N,138-00.2400E,170,22.479,34.6189
1028,2010/12/11,1:27:00,29-52.7000N,138-00.2900E,169,22.482,34.6203
1029,2010/12/11,1:28:00,29-52.4500N,138-00.3400E,169,22.483,34.6194
1030,2010/12/11,1:29:00,29-52.1900N,138-00.4000E,169,22.488,34.6199
1031,2010/12/11,1:30:00,29-51.9400N,138-00.4500E,169,22.488,34.6202
1032,2010/12/11,1:31:00,29-51.7000N,138-00.5000E,169,22.481,34.6202
1033,2010/12/11,1:32:00,29-51.4400N,138-00.5600E,169,22.479,34.6202
1034,2010/12/11,1:33:00,29-51.1900N,138-00.6100E,169,22.478,34.6201
1035,2010/12/11,1:34:00,29-50.9400N,138-00.6600E,169,22.482,34.6218
1036,2010/12/11,1:35:00,29-50.6800N,138-00.7200E,169,22.49,34.6213
1037,2010/12/11,1:36:00,29-50.4300N,138-00.7700E,169,22.495,34.6208
1038,2010/12/11,1:37:00,29-50.1800N,138-00.8300E,169,22.498,34.6192
1039,2010/12/11,1:38:00,29-49.9200N,138-00.8800E,169,22.493,34.6181
1040,2010/12/11,1:39:00,29-49.6700N,138-00.9400E,169,22.483,34.6172
1041,2010/12/11,1:40:00,29-49.4200N,138-00.9900E,169,22.467,34.6178
1042,2010/12/11,1:41:00,29-49.1600N,138-01.0500E,169,22.447,34.6184
1043,2010/12/11,1:42:00,29-48.8900N,138-01.1100E,169,22.43,34.6186
1044,2010/12/11,1:43:00,29-48.6400N,138-01.1700E,168,22.414,34.6199
1045,2010/12/11,1:44:00,29-48.3900N,138-01.2200E,169,22.398,34.6207
1046,2010/12/11,1:45:00,29-48.1400N,138-01.2700E,168,22.342,34.6206
1047,2010/12/11,1:46:00,29-47.8900N,138-01.3300E,168,22.301,34.6228
1048,2010/12/11,1:47:00,29-47.6400N,138-01.3900E,168,22.3,34.628
1049,2010/12/11,1:48:00,29-47.3900N,138-01.4500E,168,22.297,34.6331
1050,2010/12/11,1:49:00,29-47.1400N,138-01.5100E,168,22.295,34.6354
1051,2010/12/11,1:50:00,29-46.8900N,138-01.5600E,169,22.296,34.6358
1052,2010/12/11,1:51:00,29-46.6400N,138-01.6200E,169,22.292,34.6361
1053,2010/12/11,1:52:00,29-46.3900N,138-01.6700E,169,22.291,34.6363
1054,2010/12/11,1:53:00,29-46.1400N,138-01.7300E,169,22.293,34.6351
1055,2010/12/11,1:54:00,29-45.8900N,138-01.7900E,168,22.285,34.6353
1056,2010/12/11,1:55:00,29-45.6400N,138-01.8500E,168,22.286,34.6344
1057,2010/12/11,1:56:00,29-45.3900N,138-01.9000E,169,22.276,34.6336
1058,2010/12/11,1:57:00,29-45.1400N,138-01.9600E,168,22.265,34.6339
1059,2010/12/11,1:58:00,29-44.8900N,138-02.0100E,168,22.257,34.6311
1060,2010/12/11,1:59:00,29-44.6400N,138-02.0700E,168,22.246,34.6297
1061,2010/12/11,2:00:00,29-44.3900N,138-02.1200E,169,22.233,34.6283
1062,2010/12/11,2:01:00,29-44.1400N,138-02.1800E,169,22.227,34.6252
1063,2010/12/11,2:02:00,29-43.8900N,138-02.2400E,168,22.225,34.6248
1064,2010/12/11,2:03:00,29-43.6400N,138-02.3000E,168,22.228,34.624
1065,2010/12/11,2:04:00,29-43.3900N,138-02.3600E,168,22.227,34.6228
1066,2010/12/11,2:05:00,29-43.1400N,138-02.4100E,169,22.203,34.6251
1067,2010/12/11,2:06:00,29-42.8900N,138-02.4700E,169,22.192,34.625
1068,2010/12/11,2:07:00,29-42.6400N,138-02.5300E,168,22.188,34.6217
1069,2010/12/11,2:08:00,29-42.3700N,138-02.5900E,168,22.187,34.6201
1070,2010/12/11,2:09:00,29-42.1200N,138-02.6500E,168,22.185,34.6222
1071,2010/12/11,2:10:00,29-41.8700N,138-02.7100E,168,22.184,34.6225
1072,2010/12/11,2:11:00,29-41.6200N,138-02.7600E,169,22.185,34.6253
1073,2010/12/11,2:12:00,29-41.3700N,138-02.8200E,169,22.184,34.6266
1074,2010/12/11,2:13:00,29-41.1100N,138-02.8700E,169,22.171,34.6293
1075,2010/12/11,2:14:00,29-40.8700N,138-02.9300E,168,22.188,34.6275
1076,2010/12/11,2:15:00,29-40.6200N,138-02.9800E,169,22.182,34.6231
1077,2010/12/11,2:16:00,29-40.3800N,138-03.0300E,169,22.189,34.6198
1078,2010/12/11,2:17:00,29-40.1300N,138-03.0900E,169,22.189,34.6175
1079,2010/12/11,2:18:00,29-39.8800N,138-03.1400E,169,22.199,34.616
1080,2010/12/11,2:19:00,29-39.6300N,138-03.2000E,169,22.202,34.6154
1081,2010/12/11,2:20:00,29-39.3800N,138-03.2500E,169,22.203,34.6147
1082,2010/12/11,2:21:00,29-39.1400N,138-03.3000E,168,22.21,34.6148
1083,2010/12/11,2:22:00,29-38.8900N,138-03.3600E,169,22.206,34.6161
1084,2010/12/11,2:23:00,29-38.6400N,138-03.4100E,169,22.211,34.6159
1085,2010/12/11,2:24:00,29-38.3800N,138-03.4600E,169,22.216,34.6157
1086,2010/12/11,2:25:00,29-38.1400N,138-03.5200E,169,22.219,34.6145
1087,2010/12/11,2:26:00,29-37.8900N,138-03.5700E,169,22.214,34.6149
1088,2010/12/11,2:27:00,29-37.6400N,138-03.6300E,169,22.212,34.6157
1089,2010/12/11,2:28:00,29-37.3900N,138-03.6800E,169,22.205,34.6142
1090,2010/12/11,2:29:00,29-37.1400N,138-03.7400E,168,22.212,34.6134
1091,2010/12/11,2:30:00,29-36.8900N,138-03.8000E,168,22.217,34.6137
1092,2010/12/11,2:31:00,29-36.6400N,138-03.8600E,168,22.257,34.616
1093,2010/12/11,2:32:00,29-36.4000N,138-03.9200E,168,22.278,34.6165
1094,2010/12/11,2:33:00,29-36.1600N,138-03.9700E,168,22.3,34.6166
1095,2010/12/11,2:34:00,29-35.9100N,138-04.0300E,168,22.321,34.6155
1096,2010/12/11,2:35:00,29-35.6400N,138-04.0900E,168,22.33,34.6146
1097,2010/12/11,2:36:00,29-35.4000N,138-04.1400E,168,22.333,34.6132
1098,2010/12/11,2:37:00,29-35.1500N,138-04.2000E,169,22.335,34.612
1099,2010/12/11,2:38:00,29-34.9100N,138-04.2500E,168,22.339,34.6096
1100,2010/12/11,2:39:00,29-34.6500N,138-04.3100E,168,22.419,34.6096
1101,2010/12/11,2:40:00,29-34.4100N,138-04.3700E,168,22.501,34.6105
1102,2010/12/11,2:41:00,29-34.1700N,138-04.4200E,168,22.535,34.6155
1103,2010/12/11,2:42:00,29-33.9200N,138-04.4800E,168,22.553,34.6088
1104,2010/12/11,2:43:00,29-33.6700N,138-04.5400E,168,22.568,34.6154